Change the Weather History Date:

Tuesday, September 17, 2013

  Actual Average (KFSD) Record (KFSD)
Temperature  
Mean Temperature 58 °F 61 °F  
Max Temperature 64 °F 73 °F 103 °F (1895)
Min Temperature 53 °F 49 °F 24 °F (1900)
Degree Days  
Heating Degree Days 6 6  
Month to date heating degree days 63  
Since 1 July heating degree days 94  
Cooling Degree Days 0 2  
Month to date cooling degree days 50  
Year to date cooling degree days 675  
Growing Degree Days 8 (Base 50)    
Moisture  
Dew Point 56 °F    
Average Humidity 89    
Maximum Humidity 94    
Minimum Humidity 82    
Precipitation  
Precipitation 0.00 in 0.09 in 1.60 in (1907)
Month to date precipitation 1.62  
Year to date precipitation 21.01  
Snow  
Snow 0.00 in 0.00 in 0.00 in ()
Month to date snowfall 0.0  
Since 1 July snowfall 0.0  
Since 1 September snowfall 0.0  
Snow Depth -    
Sea Level Pressure  
Sea Level Pressure 30.03 in    
Wind  
Wind Speed 8 mph (SSE)    
Max Wind Speed 14 mph    
Max Gust Speed 21 mph    
Visibility 7 miles    
Events Rain    
T = Trace of Precipitation, MM = Missing Value Source: NWS Daily Summary

Daily Weather History Graph

Daily Weather History Graph

Search for Another Location

Airport or City:

Trip Planner

Search our weather history database for the weather conditions in past years. The results will help you decide how hot, cold, wet, or windy it might be!

Date:

Astronomy

Sep. 17, 2013 Rise Set
Actual Time 7:06 AM CDT 7:30 PM CDT
Civil Twilight 6:38 AM CDT 7:59 PM CDT
Nautical Twilight 6:04 AM CDT 8:33 PM CDT
Astronomical Twilight 5:29 AM CDT 9:08 PM CDT
Moon 6:20 PM CDT (9/17) 5:00 AM CDT (9/17)
Length of Visible Light 13h 21m
Length of Day
12h 24m
Waxing Gibbous, 96% of the Moon is Illuminated
Sep 17
Waxing Gibbous
Sep 19
Full
Sep 26
Last Quarter
Oct 4
New
Oct 11
First Quarter

Hourly Weather History & Observations

Time (CDT) Temp. Dew Point Humidity Pressure Visibility Wind Dir Wind Speed Gust Speed Precip Events Conditions
12:13 AM 53.6 °F 50.0 °F 88% 30.21 in 10.0 mi SSE 5.8 mph - N/A   Clear
12:33 AM 53.6 °F 50.0 °F 88% 30.21 in 10.0 mi SSE 5.8 mph - N/A   Clear
12:53 AM 53.6 °F 50.0 °F 88% 30.20 in 10.0 mi SE 5.8 mph - N/A   Clear
1:13 AM 53.6 °F 50.0 °F 88% 30.20 in 10.0 mi SSE 5.8 mph - N/A   Clear
1:33 AM 53.6 °F 50.0 °F 88% 30.20 in 10.0 mi SSE 4.6 mph - N/A   Clear
1:53 AM 53.6 °F 50.0 °F 88% 30.19 in 10.0 mi SSE 4.6 mph - N/A   Clear
2:13 AM 53.6 °F 48.2 °F 82% 30.19 in 10.0 mi SSE 6.9 mph - N/A   Scattered Clouds
2:33 AM 53.6 °F 50.0 °F 88% 30.19 in 10.0 mi SSE 5.8 mph - N/A   Mostly Cloudy
2:53 AM 53.6 °F 50.0 °F 88% 30.18 in 10.0 mi SSE 6.9 mph - N/A   Overcast
3:13 AM 53.6 °F 50.0 °F 88% 30.18 in 10.0 mi SSE 6.9 mph - N/A   Overcast
3:33 AM 53.6 °F 50.0 °F 88% 30.17 in 10.0 mi SSE 6.9 mph - N/A   Overcast
3:53 AM 53.6 °F 50.0 °F 88% 30.16 in 10.0 mi SSE 6.9 mph - N/A   Overcast
4:13 AM 53.6 °F 50.0 °F 88% 30.15 in 10.0 mi SSE 5.8 mph - N/A Rain Light Rain
4:33 AM 53.6 °F 50.0 °F 88% 30.14 in 10.0 mi SSE 8.1 mph - N/A   Overcast
4:53 AM 55.4 °F 51.8 °F 88% 30.14 in 10.0 mi South 6.9 mph - N/A   Overcast
5:13 AM 55.4 °F 51.8 °F 88% 30.13 in 10.0 mi SSE 8.1 mph - N/A   Overcast
5:33 AM 55.4 °F 51.8 °F 88% 30.13 in 10.0 mi SSE 8.1 mph - N/A   Overcast
5:53 AM 55.4 °F 51.8 °F 88% 30.12 in 7.0 mi SSE 11.5 mph - N/A   Overcast
6:13 AM 55.4 °F 51.8 °F 88% 30.12 in 7.0 mi SSE 8.1 mph - N/A   Overcast
6:33 AM 55.4 °F 53.6 °F 94% 30.12 in 10.0 mi SSE 8.1 mph - N/A   Overcast
6:53 AM 55.4 °F 53.6 °F 94% 30.11 in 10.0 mi SSE 8.1 mph - N/A   Overcast
7:13 AM 55.4 °F 53.6 °F 94% 30.11 in 10.0 mi SSE 9.2 mph - N/A   Overcast
7:33 AM 55.4 °F 53.6 °F 94% 30.11 in 10.0 mi SSE 8.1 mph - N/A   Overcast
7:53 AM 55.4 °F 53.6 °F 94% 30.10 in 10.0 mi SSE 8.1 mph - N/A   Overcast
8:13 AM 57.2 °F 53.6 °F 88% 30.10 in 10.0 mi SSE 9.2 mph - N/A   Overcast
8:33 AM 57.2 °F 53.6 °F 88% 30.09 in 10.0 mi SSE 9.2 mph 17.3 mph N/A   Overcast
8:53 AM 57.2 °F 53.6 °F 88% 30.09 in 10.0 mi SSE 10.4 mph 16.1 mph N/A   Overcast
9:13 AM 57.2 °F 53.6 °F 88% 30.09 in 10.0 mi SSE 10.4 mph 16.1 mph N/A   Overcast
9:33 AM 59.0 °F 53.6 °F 82% 30.09 in 10.0 mi SSE 10.4 mph - N/A   Overcast
9:52 AM 59.0 °F 53.6 °F 82% 30.08 in 10.0 mi SSE 12.7 mph - N/A   Overcast
10:13 AM 59.0 °F 53.6 °F 82% 30.08 in 10.0 mi South 10.4 mph 18.4 mph N/A   Overcast
10:33 AM 59.0 °F 53.6 °F 82% 30.07 in 10.0 mi South 12.7 mph 18.4 mph N/A   Overcast
10:53 AM 59.0 °F 53.6 °F 82% 30.06 in 10.0 mi SSE 12.7 mph 18.4 mph N/A   Overcast
11:13 AM 59.0 °F 55.4 °F 88% 30.05 in 10.0 mi South 13.8 mph 20.7 mph N/A   Overcast
11:33 AM 60.8 °F 55.4 °F 82% 30.05 in 10.0 mi SSE 12.7 mph 20.7 mph N/A   Overcast
11:53 AM 59.0 °F 55.4 °F 88% 30.05 in 7.0 mi SSE 12.7 mph 18.4 mph N/A   Overcast
12:13 PM 60.8 °F 55.4 °F 82% 30.04 in 7.0 mi SSE 9.2 mph - N/A   Overcast
12:33 PM 60.8 °F 55.4 °F 82% 30.03 in 7.0 mi South 11.5 mph - N/A   Overcast
12:53 PM 60.8 °F 55.4 °F 82% 30.02 in 7.0 mi South 10.4 mph 18.4 mph N/A   Overcast
1:13 PM 60.8 °F 55.4 °F 82% 30.02 in 7.0 mi SSE 11.5 mph - N/A   Overcast
1:33 PM 60.8 °F 55.4 °F 82% 30.01 in 7.0 mi SSE 12.7 mph 17.3 mph N/A   Overcast
1:53 PM 60.8 °F 55.4 °F 82% 30.00 in 7.0 mi SSE 10.4 mph 16.1 mph N/A   Overcast
2:13 PM 60.8 °F 57.2 °F 88% 29.99 in 5.0 mi SSE 10.4 mph - N/A   Overcast
2:33 PM 60.8 °F 57.2 °F 88% 29.98 in 5.0 mi South 11.5 mph 16.1 mph N/A   Overcast
2:53 PM 60.8 °F 57.2 °F 88% 29.97 in 4.0 mi SSE 10.4 mph - N/A   Overcast
3:13 PM 60.8 °F 57.2 °F 88% 29.97 in 4.0 mi SSE 10.4 mph - N/A   Overcast
3:33 PM 60.8 °F 57.2 °F 88% 29.95 in 4.0 mi SE 8.1 mph - N/A   Overcast
3:53 PM 60.8 °F 59.0 °F 94% 29.94 in 1.8 mi SSE 10.4 mph - N/A   Drizzle
4:13 PM 60.8 °F 59.0 °F 94% 29.93 in 1.2 mi SSE 10.4 mph - N/A   Drizzle
4:33 PM 60.8 °F 59.0 °F 94% 29.93 in 1.8 mi SE 10.4 mph - N/A Rain Rain
4:53 PM 60.8 °F 59.0 °F 94% 29.92 in 1.8 mi SSE 10.4 mph - N/A   Light Drizzle
5:13 PM 60.8 °F 59.0 °F 94% 29.92 in 1.8 mi SSE 9.2 mph 19.6 mph N/A   Overcast
5:33 PM 60.8 °F 59.0 °F 94% 29.92 in 1.5 mi SSE 9.2 mph - N/A   Overcast
5:53 PM 60.8 °F 59.0 °F 94% 29.92 in 1.5 mi SE 10.4 mph 17.3 mph N/A   Overcast
6:13 PM 60.8 °F 59.0 °F 94% 29.91 in 1.0 mi SSE 11.5 mph 16.1 mph N/A   Overcast
6:33 PM 60.8 °F 59.0 °F 94% 29.91 in 1.0 mi SSE 8.1 mph - N/A   Overcast
6:52 PM 62.6 °F 59.0 °F 88% 29.90 in 1.8 mi SSE 9.2 mph - N/A Rain Rain
7:13 PM 62.6 °F 60.8 °F 94% 29.90 in 1.8 mi SE 9.2 mph - N/A   Drizzle
7:33 PM 62.6 °F 60.8 °F 94% 29.90 in 1.5 mi SE 8.1 mph - N/A   Light Drizzle
7:53 PM 62.6 °F 60.8 °F 94% 29.89 in 2.0 mi SE 6.9 mph - N/A   Drizzle
8:13 PM 62.6 °F 60.8 °F 94% 29.90 in 2.0 mi SE 8.1 mph - N/A Rain Rain
8:33 PM 62.6 °F 60.8 °F 94% 29.90 in 2.5 mi SE 8.1 mph - N/A   Drizzle
8:52 PM 62.6 °F 60.8 °F 94% 29.89 in 2.5 mi SE 9.2 mph - N/A   Drizzle
9:13 PM 62.6 °F 60.8 °F 94% 29.89 in 3.0 mi SSE 8.1 mph - N/A   Overcast
9:33 PM 62.6 °F 60.8 °F 94% 29.88 in 4.0 mi SSE 8.1 mph - N/A   Overcast
9:52 PM 62.6 °F 60.8 °F 94% 29.89 in 4.0 mi SSE 8.1 mph - N/A   Overcast
10:13 PM 62.6 °F 60.8 °F 94% 29.89 in 4.0 mi SSE 5.8 mph - N/A   Overcast
10:33 PM 62.6 °F 60.8 °F 94% 29.89 in 5.0 mi SSE 8.1 mph - N/A   Overcast
10:53 PM 62.6 °F 60.8 °F 94% 29.88 in 5.0 mi SSE 9.2 mph - N/A   Overcast
11:13 PM 64.4 °F 62.6 °F 94% 29.87 in 5.0 mi SSE 9.2 mph - N/A   Overcast
11:33 PM 64.4 °F 62.6 °F 94% 29.87 in 4.0 mi SSE 11.5 mph 16.1 mph N/A   Overcast
11:53 PM 64.4 °F 62.6 °F 94% 29.87 in 3.0 mi SSE 10.4 mph 16.1 mph N/A   Overcast